N256VM SAZS-SCTE

Flight info

Callsign N256VM
Flight time 0h 36m
Altitude 10000
Route TONAR1G TONAR MIDOR5
Aircraft S22T/L-SDGRY/S

Departure

Time 2026-05-09 02:59
Airport Teniente Luis Candelaria International Airport (SAZS)

Arrival

Time 2026-05-09 03:36
Airport El Tepual International Airport (SCTE)
Time Latitude Longitude Altitude Speed Heading
2026-05-09 02:33 -41.14836 -71.15576 2755 ft 0 kts 23°
2026-05-09 02:55 -41.14820 -71.15577 2756 ft 7 kts 320°
2026-05-09 02:55 -41.14867 -71.15615 2754 ft 13 kts 188°
2026-05-09 02:55 -41.14970 -71.15655 2755 ft 13 kts 201°
2026-05-09 02:56 -41.15032 -71.15557 2755 ft 19 kts 116°
2026-05-09 02:56 -41.15092 -71.15375 2757 ft 23 kts 113°
2026-05-09 02:56 -41.15157 -71.15165 2759 ft 26 kts 111°
2026-05-09 02:56 -41.15244 -71.14948 2761 ft 27 kts 115°
2026-05-09 02:57 -41.15324 -71.14719 2763 ft 28 kts 114°
2026-05-09 02:57 -41.15412 -71.14487 2765 ft 24 kts 140°
2026-05-09 02:57 -41.15470 -71.14488 2764 ft 0 kts 211°
2026-05-09 02:58 -41.15475 -71.14492 2764 ft 9 kts 207°
2026-05-09 02:58 -41.15496 -71.14697 2763 ft 50 kts 294°
2026-05-09 02:58 -41.15267 -71.15389 2793 ft 105 kts 294°
2026-05-09 02:58 -41.14948 -71.16335 3064 ft 118 kts 292°
2026-05-09 02:59 -41.14597 -71.17371 3367 ft 128 kts 291°
2026-05-09 02:59 -41.14219 -71.18471 3658 ft 136 kts 291°
2026-05-09 02:59 -41.13821 -71.19645 4013 ft 141 kts 291°
2026-05-09 02:59 -41.13414 -71.20840 4411 ft 143 kts 291°
2026-05-09 03:00 -41.12999 -71.22049 4780 ft 145 kts 290°
2026-05-09 03:00 -41.12587 -71.23264 5126 ft 147 kts 289°
2026-05-09 03:00 -41.12163 -71.24511 5456 ft 149 kts 289°
2026-05-09 03:00 -41.11734 -71.25773 5784 ft 150 kts 289°
2026-05-09 03:01 -41.11305 -71.27044 6152 ft 150 kts 289°
2026-05-09 03:01 -41.10878 -71.28301 6521 ft 152 kts 289°
2026-05-09 03:01 -41.10442 -71.29586 6882 ft 153 kts 288°
2026-05-09 03:01 -41.10002 -71.30881 7233 ft 154 kts 288°
2026-05-09 03:02 -41.09561 -71.32183 7588 ft 155 kts 288°
2026-05-09 03:02 -41.09122 -71.33477 7939 ft 156 kts 288°
2026-05-09 03:02 -41.08673 -71.34795 8293 ft 157 kts 289°
2026-05-09 03:02 -41.08450 -71.36166 8638 ft 147 kts 249°
2026-05-09 03:03 -41.08891 -71.37281 9007 ft 133 kts 215°
2026-05-09 03:03 -41.09649 -71.37835 9391 ft 121 kts 186°
2026-05-09 03:03 -41.10469 -71.38085 9783 ft 121 kts 186°
2026-05-09 03:03 -41.11285 -71.38369 10169 ft 121 kts 187°
2026-05-09 03:04 -41.12090 -71.38666 10511 ft 121 kts 187°
2026-05-09 03:04 -41.12906 -71.38969 10848 ft 122 kts 187°
2026-05-09 03:04 -41.13724 -71.39267 11174 ft 122 kts 188°
2026-05-09 03:04 -41.14538 -71.39562 11505 ft 122 kts 189°
2026-05-09 03:05 -41.15358 -71.39860 11851 ft 122 kts 188°
2026-05-09 03:05 -41.16170 -71.40192 12217 ft 123 kts 196°
2026-05-09 03:05 -41.16893 -71.40829 12585 ft 129 kts 211°
2026-05-09 03:05 -41.17468 -71.41797 12959 ft 138 kts 229°
2026-05-09 03:06 -41.17788 -71.43038 13363 ft 147 kts 247°
2026-05-09 03:06 -41.17955 -71.44365 13742 ft 147 kts 247°
2026-05-09 03:06 -41.18145 -71.45693 14137 ft 145 kts 245°
2026-05-09 03:06 -41.18350 -71.47005 14499 ft 145 kts 244°
2026-05-09 03:07 -41.18556 -71.48301 14886 ft 145 kts 243°
2026-05-09 03:07 -41.18762 -71.49613 15275 ft 144 kts 242°
2026-05-09 03:07 -41.18963 -71.50922 15575 ft 144 kts 240°
2026-05-09 03:07 -41.19164 -71.52206 15831 ft 143 kts 240°
2026-05-09 03:08 -41.19378 -71.53530 16005 ft 152 kts 240°
2026-05-09 03:08 -41.19623 -71.54969 16023 ft 166 kts 242°
2026-05-09 03:08 -41.19878 -71.56532 16020 ft 184 kts 244°
2026-05-09 03:08 -41.20139 -71.58236 16014 ft 191 kts 245°
2026-05-09 03:09 -41.20399 -71.59987 16018 ft 196 kts 245°
2026-05-09 03:09 -41.20662 -71.61762 16005 ft 200 kts 245°
2026-05-09 03:09 -41.20929 -71.63582 16012 ft 200 kts 245°
2026-05-09 03:09 -41.21201 -71.65393 16006 ft 201 kts 245°
2026-05-09 03:10 -41.21477 -71.67221 16010 ft 201 kts 245°
2026-05-09 03:10 -41.21755 -71.69055 16008 ft 203 kts 245°
2026-05-09 03:10 -41.22034 -71.70877 16005 ft 204 kts 245°
2026-05-09 03:10 -41.22313 -71.72732 16006 ft 204 kts 245°
2026-05-09 03:11 -41.22593 -71.74592 16010 ft 205 kts 245°
2026-05-09 03:11 -41.22877 -71.76467 16009 ft 206 kts 245°
2026-05-09 03:11 -41.23154 -71.78306 16005 ft 204 kts 245°
2026-05-09 03:11 -41.23433 -71.80158 16002 ft 203 kts 245°
2026-05-09 03:12 -41.23710 -71.81955 16006 ft 198 kts 244°
2026-05-09 03:12 -41.23984 -71.83752 15997 ft 197 kts 245°
2026-05-09 03:12 -41.24249 -71.85552 15996 ft 200 kts 245°
2026-05-09 03:12 -41.24345 -71.87450 15991 ft 209 kts 254°
2026-05-09 03:13 -41.25077 -71.90833 15991 ft 187 kts 236°
2026-05-09 03:13 -41.25419 -71.92530 16008 ft 194 kts 243°
2026-05-09 03:13 -41.25674 -71.94338 16000 ft 200 kts 245°
2026-05-09 03:14 -41.25915 -71.96158 16005 ft 199 kts 245°
2026-05-09 03:14 -41.26174 -71.97954 16003 ft 201 kts 244°
2026-05-09 03:14 -41.26449 -71.99775 16004 ft 200 kts 244°
2026-05-09 03:14 -41.26728 -72.01590 16007 ft 201 kts 244°
2026-05-09 03:15 -41.27006 -72.03391 16002 ft 201 kts 244°
2026-05-09 03:15 -41.27280 -72.05207 15998 ft 200 kts 244°
2026-05-09 03:15 -41.27554 -72.07028 16002 ft 201 kts 244°
2026-05-09 03:15 -41.27825 -72.08831 16003 ft 195 kts 244°
2026-05-09 03:16 -41.28090 -72.10605 15999 ft 196 kts 243°
2026-05-09 03:16 -41.28366 -72.12393 16011 ft 199 kts 243°
2026-05-09 03:16 -41.28651 -72.14197 16005 ft 203 kts 243°
2026-05-09 03:16 -41.28932 -72.16032 16001 ft 201 kts 244°
2026-05-09 03:17 -41.29203 -72.17864 16007 ft 202 kts 244°
2026-05-09 03:17 -41.29482 -72.19699 16006 ft 203 kts 244°
2026-05-09 03:17 -41.29762 -72.21540 16001 ft 202 kts 244°
2026-05-09 03:17 -41.30028 -72.23345 15993 ft 200 kts 244°
2026-05-09 03:18 -41.30296 -72.25145 15992 ft 197 kts 243°
2026-05-09 03:18 -41.30567 -72.26941 15991 ft 196 kts 243°
2026-05-09 03:18 -41.30835 -72.28706 15992 ft 196 kts 243°
2026-05-09 03:18 -41.31110 -72.30485 15993 ft 197 kts 243°
2026-05-09 03:19 -41.31384 -72.32286 15990 ft 198 kts 243°
2026-05-09 03:19 -41.31656 -72.34096 16001 ft 199 kts 243°
2026-05-09 03:19 -41.31926 -72.35890 15997 ft 200 kts 243°
2026-05-09 03:19 -41.32196 -72.37698 15995 ft 199 kts 243°
2026-05-09 03:20 -41.32464 -72.39501 15994 ft 198 kts 243°
2026-05-09 03:20 -41.32731 -72.41294 15993 ft 197 kts 243°
2026-05-09 03:20 -41.33000 -72.43078 15918 ft 200 kts 243°
2026-05-09 03:20 -41.33286 -72.44923 15763 ft 203 kts 243°
2026-05-09 03:21 -41.33564 -72.46762 15623 ft 205 kts 244°
2026-05-09 03:21 -41.33843 -72.48644 15480 ft 207 kts 244°
2026-05-09 03:21 -41.34119 -72.50531 15347 ft 208 kts 244°
2026-05-09 03:21 -41.34403 -72.52434 15204 ft 210 kts 244°
2026-05-09 03:22 -41.34689 -72.54331 15065 ft 212 kts 245°
2026-05-09 03:22 -41.34971 -72.56266 14915 ft 213 kts 245°
2026-05-09 03:22 -41.35244 -72.58202 14779 ft 212 kts 245°
2026-05-09 03:22 -41.35521 -72.60102 14639 ft 211 kts 245°
2026-05-09 03:23 -41.35810 -72.62025 14495 ft 212 kts 245°
2026-05-09 03:23 -41.36097 -72.63956 14355 ft 210 kts 245°
2026-05-09 03:23 -41.36376 -72.65846 14209 ft 210 kts 245°
2026-05-09 03:23 -41.36654 -72.67741 14054 ft 207 kts 245°
2026-05-09 03:24 -41.36932 -72.69630 13894 ft 207 kts 245°
2026-05-09 03:24 -41.37207 -72.71490 13735 ft 207 kts 245°
2026-05-09 03:24 -41.37485 -72.73376 13575 ft 207 kts 245°
2026-05-09 03:24 -41.37760 -72.75252 13417 ft 198 kts 246°
2026-05-09 03:25 -41.37985 -72.76961 13015 ft 185 kts 246°
2026-05-09 03:25 -41.38225 -72.78637 12491 ft 182 kts 245°
2026-05-09 03:25 -41.38479 -72.80286 11977 ft 181 kts 246°
2026-05-09 03:25 -41.38731 -72.81910 11489 ft 181 kts 247°
2026-05-09 03:26 -41.38974 -72.83554 11005 ft 181 kts 249°
2026-05-09 03:26 -41.39213 -72.85205 10522 ft 182 kts 250°
2026-05-09 03:26 -41.39454 -72.86865 10015 ft 182 kts 250°
2026-05-09 03:26 -41.39692 -72.88502 9495 ft 182 kts 251°
2026-05-09 03:27 -41.39932 -72.90155 8972 ft 181 kts 252°
2026-05-09 03:27 -41.40171 -72.91802 8460 ft 180 kts 252°
2026-05-09 03:27 -41.40403 -72.93411 8058 ft 174 kts 253°
2026-05-09 03:27 -41.40605 -72.94885 8037 ft 149 kts 253°
2026-05-09 03:28 -41.40774 -72.96148 8034 ft 128 kts 251°
2026-05-09 03:28 -41.40927 -72.97240 8026 ft 111 kts 250°
2026-05-09 03:28 -41.41075 -72.98234 7760 ft 122 kts 249°
2026-05-09 03:28 -41.41274 -72.99435 7297 ft 142 kts 252°
2026-05-09 03:29 -41.41482 -73.00779 6854 ft 152 kts 254°
2026-05-09 03:29 -41.41687 -73.02198 6368 ft 159 kts 255°
2026-05-09 03:29 -41.41896 -73.03672 5877 ft 164 kts 256°
2026-05-09 03:29 -41.42110 -73.05168 5389 ft 167 kts 257°
2026-05-09 03:30 -41.42329 -73.06707 4878 ft 169 kts 258°
2026-05-09 03:30 -41.42547 -73.08238 4375 ft 170 kts 258°
2026-05-09 03:30 -41.42769 -73.09793 3870 ft 170 kts 258°
2026-05-09 03:30 -41.42975 -73.11343 3357 ft 169 kts 264°
2026-05-09 03:31 -41.42586 -73.12780 2806 ft 174 kts 317°
2026-05-09 03:31 -41.41538 -73.13275 2644 ft 153 kts 359°
2026-05-09 03:31 -41.40629 -73.12793 2460 ft 137 kts 54°
2026-05-09 03:31 -41.40412 -73.11665 2291 ft 124 kts 90°
2026-05-09 03:32 -41.40383 -73.10544 2116 ft 118 kts 91°
2026-05-09 03:32 -41.40511 -73.09537 2036 ft 102 kts 131°
2026-05-09 03:32 -41.41141 -73.09203 1522 ft 124 kts 174°
2026-05-09 03:32 -41.42097 -73.09248 823 ft 146 kts 185°
2026-05-09 03:33 -41.43181 -73.09376 300 ft 151 kts 180°
2026-05-09 03:33 -41.44136 -73.09400 299 ft 126 kts 180°
2026-05-09 03:33 -41.44945 -73.09415 384 ft 114 kts 187°
2026-05-09 03:33 -41.45047 -73.10151 563 ft 133 kts 342°
2026-05-09 03:34 -41.44105 -73.10362 782 ft 141 kts 352°
2026-05-09 03:34 -41.43103 -73.10486 897 ft 153 kts 358°
2026-05-09 03:34 -41.42144 -73.10528 850 ft 137 kts 357°
2026-05-09 03:34 -41.41368 -73.10209 735 ft 121 kts 76°
2026-05-09 03:35 -41.41553 -73.09348 748 ft 95 kts 169°
2026-05-09 03:35 -41.42317 -73.09340 385 ft 117 kts 182°
2026-05-09 03:35 -41.43126 -73.09365 276 ft 110 kts 181°
2026-05-09 03:35 -41.43835 -73.09395 282 ft 93 kts 181°
2026-05-09 03:36 -41.44160 -73.09415 285 ft 11 kts 131°
2026-05-09 03:36 -41.44079 -73.09431 284 ft 19 kts 306°
2026-05-09 03:36 -41.44064 -73.09619 284 ft 22 kts 270°
2026-05-09 03:36 -41.44152 -73.09740 286 ft 19 kts 183°
2026-05-09 03:37 -41.44186 -73.09715 286 ft 0 kts 90°